Location: Newark
(36.0797°N, 3.9744°E)
Time: 06:47:51
(UTC+00:00)

Tiros 1 - Pass Details

Date: 11 December 2019
Orbit: 630 x 664 km, 48.4° (Epoch: 27 January)

Event Time Altitude Azimuth Distance (km) Brightness Sun altitude
Exits shadow 06:06:17 - 258° (WSW) 2,534 9.7 -7.8°
Reaches altitude 10° 06:07:38 10° 263° (W) 2,044 9.2 -7.5°
Maximum altitude 06:12:03 39° 333° (NNW) 964 7.7 -6.7°
Drops below altitude 10° 06:16:26 10° 43° (NE) 2,029 10.0 -5.9°
Sets 06:18:53 0° 51° (NE) 2,934 10.9 -5.5°
